Flag for Italy Weather past 2 weeks in Venice, Italy

Now
52 °F

Light rain. Fog.


Feels Like: 52 °F
Forecast: 43 / 59 °F
Wind: 2 mph from West

Location: Venice / Tessera

Current Time: Mar 27, 2015 at 6:57:30 AM

Latest Report: Mar 27, 2015 at 6:20 AM


Visibility: 3 mi

Pressure: 29.68 "Hg

Humidity: 94%

Dew point: 50 °F

Location of VeniceLocation

Historic Weather in Venice — Graph

°F

Venice temperature yesterday

Maximum temperature yesterday: 55 °F (at 11:50 AM)
Minimum temperature yesterday: 50 °F (at 12:20 AM)
Average temperature yesterday: 53 °F

Past Weeks' High & Low Weather Summary

 TemperatureHumidityPressure
High63 °F (Mar 19, 4:20 PM)100% (Mar 21, 4:50 AM)30.39 "Hg (Mar 21, 4:50 AM)
Low36 °F (Mar 14, 6:20 AM)25% (Mar 12, 12:20 PM)29.47 "Hg (Mar 25, 5:20 PM)
Average50 °F73%30.08 "Hg
* Reported Mar 12 5:20 AM — Mar 27 5:50 AM, Venice, Weather by CustomWeather, © 2015

Note: Actual official high and low records may vary slightly from our data, if they occured in-between our weather recording intervals... More about our weather records

Advertising

Venice weather history for previous 24 hours

 ConditionsComfort  
Time TempWeatherWind HumidityBarometerVisibility
5:50 AM
Fri, Mar 27
52 °FLight rain. Fog.3 mph94%29.68 "Hg2 mi
5:20 AM52 °FLight rain. Fog.3 mph94%29.68 "Hg3 mi
4:50 AM52 °FLight rain. Fog.6 mph94%29.68 "Hg3 mi
3:50 AM52 °FLight rain. Fog.6 mph94%29.68 "Hg2 mi
3:20 AM52 °FLight rain. Fog.5 mph94%29.68 "Hg2 mi
2:50 AM52 °FLight rain. Fog.5 mph94%29.71 "Hg2 mi
2:20 AM52 °FLight rain. Fog.6 mph94%29.71 "Hg3 mi
1:50 AM52 °FFog.5 mph94%29.71 "Hg3 mi
1:20 AM52 °FLow clouds.7 mph94%29.71 "Hg4 mi
12:50 AM52 °FLow clouds.6 mph94%29.74 "Hg5 mi
12:20 AM52 °FLight rain. Low clouds.7 mph94%29.74 "Hg4 mi
11:50 PM
Thu, Mar 26
52 °FLight rain. Low clouds.7 mph94%29.74 "Hg4 mi
11:20 PM52 °FLight rain. Low clouds.7 mph94%29.74 "Hg4 mi
10:50 PM54 °FRain. Fog.6 mph94%29.77 "Hg2 mi
9:50 PM54 °FRain. Fog.6 mph94%29.74 "Hg3 mi
9:20 PM54 °FRain. Fog.6 mph94%29.74 "Hg3 mi
8:50 PM54 °FLight rain. Fog.6 mph94%29.74 "Hg3 mi
8:20 PM54 °FLight rain. Partly cloudy.8 mph94%29.74 "Hg4 mi
7:50 PM54 °FPartly cloudy.8 mph94%29.74 "Hg4 mi
7:20 PM54 °FLight rain. Partly cloudy.8 mph94%29.74 "Hg4 mi
6:50 PM55 °FLight rain. Fog.9 mph94%29.74 "Hg3 mi
6:20 PM55 °FLight rain. Fog.9 mph94%29.74 "Hg3 mi
5:50 PM55 °FLight rain. Partly sunny.7 mph94%29.71 "Hg4 mi
5:20 PM55 °FLight rain. Partly sunny.6 mph94%29.71 "Hg4 mi
4:50 PM55 °FLight rain. Partly sunny.3 mph94%29.71 "Hg4 mi
4:20 PM55 °FLight rain. Fog.3 mph94%29.71 "Hg3 mi
3:50 PM55 °FLight rain. Fog.6 mph94%29.71 "Hg2 mi
3:20 PM55 °FLight rain. Fog.6 mph94%29.71 "Hg2 mi
2:50 PM55 °FLight rain. Fog.3 mph94%29.74 "Hg3 mi
2:20 PM55 °FLight rain. Fog.3 mph94%29.74 "Hg3 mi
1:50 PM55 °FLight rain. Broken clouds.3 mph94%29.74 "Hg4 mi
1:20 PM55 °FLight rain. Broken clouds.5 mph94%29.74 "Hg4 mi
12:50 PM54 °FLight rain. Broken clouds.7 mph100%29.74 "Hg4 mi
12:20 PM55 °FLight rain. Partly sunny.3 mph88%29.74 "HgN/A
11:50 AM55 °FLight rain. Broken clouds.5 mph88%29.71 "HgN/A
11:20 AM54 °FLight rain. Broken clouds.7 mph94%29.71 "Hg6 mi
10:50 AM54 °FLight rain. Broken clouds.7 mph94%29.71 "Hg6 mi
10:20 AM54 °FLight rain. Broken clouds.10 mph94%29.71 "Hg5 mi
9:50 AM54 °FLight rain. Broken clouds.10 mph94%29.68 "Hg4 mi
9:20 AM54 °FLight rain. Broken clouds.10 mph94%29.68 "Hg4 mi
8:50 AM54 °FLight rain. Broken clouds.10 mph94%29.68 "Hg4 mi
8:20 AM54 °FLight rain. Broken clouds.10 mph94%29.65 "Hg4 mi
7:50 AM54 °FLight rain. Partly sunny.9 mph94%29.65 "Hg5 mi
7:20 AM54 °FLight rain. Broken clouds.8 mph94%29.65 "Hg4 mi
6:50 AM54 °FLight rain. Broken clouds.12 mph94%29.62 "Hg4 mi
6:20 AM54 °FLight rain. Broken clouds.8 mph94%29.62 "Hg4 mi
Weather by CustomWeather, © 2015

See weather overviewHow to use our weather pages